JES3231 SANT-SABE

Flight info

Callsign JES3231
Flight time 1h 19m
Altitude 37000
Route PUBE3E PUBER UL550 ROS UT672 MULTA UW24 SNT SNT8Q
Aircraft A320/M-SDE3FGHIRWY/LB1

Departure

Time 2026-05-05 01:17
Airport Teniente Benjamín Matienzo International Airport (SANT)

Arrival

Time 2026-05-05 02:36
Airport Aeroparque Jorge Newbery (SABE)
Time Latitude Longitude Altitude Speed Heading
2026-05-05 00:26 -26.83606 -65.10765 1492 ft 0 kts 281°
2026-05-05 01:09 -26.83609 -65.10751 1492 ft 4 kts 284°
2026-05-05 01:09 -26.83618 -65.10724 1490 ft 4 kts 314°
2026-05-05 01:10 -26.83634 -65.10715 1485 ft 1 kts
2026-05-05 01:12 -26.83632 -65.10714 1484 ft 2 kts
2026-05-05 01:13 -26.83596 -65.10708 1492 ft 8 kts
2026-05-05 01:13 -26.83525 -65.10695 1488 ft 11 kts
2026-05-05 01:13 -26.83451 -65.10660 1491 ft 12 kts 40°
2026-05-05 01:13 -26.83382 -65.10597 1481 ft 14 kts 39°
2026-05-05 01:14 -26.83305 -65.10523 1483 ft 15 kts 40°
2026-05-05 01:14 -26.83219 -65.10443 1478 ft 17 kts 40°
2026-05-05 01:14 -26.83123 -65.10354 1481 ft 19 kts 40°
2026-05-05 01:14 -26.83008 -65.10274 1491 ft 20 kts 13°
2026-05-05 01:15 -26.82859 -65.10242 1480 ft 23 kts 10°
2026-05-05 01:15 -26.82698 -65.10211 1477 ft 24 kts 10°
2026-05-05 01:15 -26.82537 -65.10179 1492 ft 23 kts
2026-05-05 01:15 -26.82424 -65.10194 1489 ft 12 kts 334°
2026-05-05 01:16 -26.82347 -65.10176 1482 ft 12 kts 65°
2026-05-05 01:16 -26.82364 -65.10146 1484 ft 4 kts 178°
2026-05-05 01:16 -26.82388 -65.10150 1485 ft 0 kts 191°
2026-05-05 01:16 -26.82438 -65.10160 1484 ft 32 kts 190°
2026-05-05 01:17 -26.82883 -65.10247 1487 ft 95 kts 190°
2026-05-05 01:17 -26.83702 -65.10409 1481 ft 141 kts 189°
2026-05-05 01:17 -26.84790 -65.10635 1611 ft 170 kts 189°
2026-05-05 01:17 -26.85958 -65.10900 2152 ft 173 kts 191°
2026-05-05 01:18 -26.87168 -65.11121 2668 ft 182 kts 182°
2026-05-05 01:18 -26.88485 -65.10973 3004 ft 198 kts 165°
2026-05-05 01:18 -26.89809 -65.10355 3308 ft 216 kts 150°
2026-05-05 01:18 -26.91157 -65.09454 3593 ft 236 kts 147°
2026-05-05 01:19 -26.92609 -65.08404 3948 ft 260 kts 146°
2026-05-05 01:19 -26.94174 -65.07256 4490 ft 276 kts 145°
2026-05-05 01:19 -26.95790 -65.06077 5321 ft 279 kts 146°
2026-05-05 01:19 -26.97442 -65.04891 6077 ft 284 kts 147°
2026-05-05 01:20 -26.99126 -65.03690 6772 ft 289 kts 148°
2026-05-05 01:20 -27.00831 -65.02481 7471 ft 291 kts 148°
2026-05-05 01:20 -27.02554 -65.01262 8162 ft 294 kts 148°
2026-05-05 01:20 -27.04291 -65.00032 8821 ft 297 kts 147°
2026-05-05 01:21 -27.06045 -64.98791 9482 ft 299 kts 147°
2026-05-05 01:21 -27.07815 -64.97539 10064 ft 304 kts 148°
2026-05-05 01:21 -27.09654 -64.96237 10248 ft 323 kts 148°
2026-05-05 01:21 -27.11613 -64.94850 10366 ft 342 kts 148°
2026-05-05 01:22 -27.13633 -64.93418 10664 ft 352 kts 148°
2026-05-05 01:22 -27.15714 -64.91941 11138 ft 356 kts 149°
2026-05-05 01:22 -27.17130 -64.90936 11491 ft 357 kts 149°
2026-05-05 01:22 -27.19922 -64.88955 12209 ft 360 kts 149°
2026-05-05 01:23 -27.22044 -64.87449 12747 ft 362 kts 149°
2026-05-05 01:23 -27.23489 -64.86422 13105 ft 363 kts 149°
2026-05-05 01:23 -27.26330 -64.84404 13785 ft 367 kts 150°
2026-05-05 01:23 -27.28495 -64.82864 14241 ft 369 kts 150°
2026-05-05 01:24 -27.29936 -64.81838 14539 ft 371 kts 150°
2026-05-05 01:24 -27.32130 -64.80277 14989 ft 375 kts 150°
2026-05-05 01:24 -27.34341 -64.78701 15438 ft 378 kts 150°
2026-05-05 01:24 -27.36578 -64.77108 15883 ft 381 kts 150°
2026-05-05 01:25 -27.38828 -64.75506 16339 ft 385 kts 151°
2026-05-05 01:25 -27.41098 -64.73888 16799 ft 388 kts 151°
2026-05-05 01:25 -27.43387 -64.72252 17251 ft 391 kts 151°
2026-05-05 01:25 -27.45700 -64.70597 17728 ft 395 kts 151°
2026-05-05 01:26 -27.48026 -64.68932 18158 ft 398 kts 151°
2026-05-05 01:26 -27.50377 -64.67252 18559 ft 402 kts 151°
2026-05-05 01:26 -27.52746 -64.65559 18990 ft 404 kts 151°
2026-05-05 01:26 -27.55142 -64.63874 19420 ft 407 kts 152°
2026-05-05 01:27 -27.57569 -64.62225 19859 ft 409 kts 153°
2026-05-05 01:27 -27.60024 -64.60594 20300 ft 411 kts 153°
2026-05-05 01:27 -27.62503 -64.58960 20733 ft 413 kts 153°
2026-05-05 01:27 -27.64990 -64.57317 21180 ft 416 kts 153°
2026-05-05 01:28 -27.67460 -64.55676 21594 ft 419 kts 153°
2026-05-05 01:28 -27.69971 -64.53995 22017 ft 421 kts 153°
2026-05-05 01:28 -27.72497 -64.52297 22427 ft 424 kts 153°
2026-05-05 01:28 -27.75036 -64.50586 22835 ft 426 kts 153°
2026-05-05 01:29 -27.77595 -64.48860 23242 ft 429 kts 153°
2026-05-05 01:29 -27.80166 -64.47125 23617 ft 431 kts 153°
2026-05-05 01:29 -27.82752 -64.45378 23952 ft 434 kts 153°
2026-05-05 01:29 -27.85348 -64.43626 24287 ft 436 kts 153°
2026-05-05 01:30 -27.87959 -64.41863 24612 ft 439 kts 153°
2026-05-05 01:30 -27.90586 -64.40088 24953 ft 441 kts 153°
2026-05-05 01:30 -27.93226 -64.38302 25282 ft 444 kts 153°
2026-05-05 01:30 -27.95891 -64.36498 25613 ft 446 kts 153°
2026-05-05 01:31 -27.98562 -64.34695 25938 ft 448 kts 154°
2026-05-05 01:31 -28.01247 -64.32880 26262 ft 451 kts 154°
2026-05-05 01:31 -28.03948 -64.31051 26570 ft 453 kts 154°
2026-05-05 01:31 -28.06662 -64.29212 26900 ft 456 kts 154°
2026-05-05 01:32 -28.09393 -64.27361 27222 ft 458 kts 154°
2026-05-05 01:32 -28.12135 -64.25499 27548 ft 461 kts 154°
2026-05-05 01:32 -28.14892 -64.23624 27881 ft 464 kts 154°
2026-05-05 01:32 -28.17632 -64.21762 28204 ft 466 kts 154°
2026-05-05 01:33 -28.20423 -64.19865 28518 ft 469 kts 154°
2026-05-05 01:33 -28.23228 -64.17958 28829 ft 472 kts 154°
2026-05-05 01:33 -28.26049 -64.16037 29139 ft 474 kts 154°
2026-05-05 01:33 -28.28883 -64.14105 29488 ft 475 kts 154°
2026-05-05 01:34 -28.31713 -64.12170 29937 ft 475 kts 155°
2026-05-05 01:34 -28.34539 -64.10238 30324 ft 474 kts 155°
2026-05-05 01:34 -28.37361 -64.08310 30729 ft 473 kts 155°
2026-05-05 01:34 -28.40181 -64.06386 31094 ft 473 kts 155°
2026-05-05 01:35 -28.43007 -64.04459 31480 ft 472 kts 155°
2026-05-05 01:35 -28.45819 -64.02538 31890 ft 471 kts 155°
2026-05-05 01:35 -28.48620 -64.00621 32301 ft 469 kts 155°
2026-05-05 01:35 -28.51415 -63.98710 32706 ft 468 kts 155°
2026-05-05 01:36 -28.54208 -63.96801 33116 ft 467 kts 156°
2026-05-05 01:36 -28.56989 -63.94898 33519 ft 466 kts 156°
2026-05-05 01:36 -28.59763 -63.92993 33928 ft 465 kts 156°
2026-05-05 01:36 -28.62532 -63.91088 34259 ft 465 kts 156°
2026-05-05 01:37 -28.65297 -63.89188 34565 ft 464 kts 156°
2026-05-05 01:37 -28.68062 -63.87290 34856 ft 464 kts 156°
2026-05-05 01:37 -28.70825 -63.85396 35142 ft 464 kts 157°
2026-05-05 01:37 -28.73594 -63.83498 35415 ft 464 kts 157°
2026-05-05 01:38 -28.76357 -63.81601 35689 ft 464 kts 157°
2026-05-05 01:38 -28.79114 -63.79702 35960 ft 464 kts 157°
2026-05-05 01:38 -28.81877 -63.77797 36224 ft 463 kts 157°
2026-05-05 01:38 -28.84599 -63.75915 36502 ft 464 kts 157°
2026-05-05 01:39 -28.87354 -63.74000 36739 ft 464 kts 157°
2026-05-05 01:39 -28.90109 -63.72077 36864 ft 465 kts 157°
2026-05-05 01:39 -28.95689 -63.68185 36887 ft 473 kts 157°
2026-05-05 01:40 -29.01318 -63.64254 36888 ft 477 kts 157°
2026-05-05 01:40 -29.07074 -63.60240 36892 ft 489 kts 157°
2026-05-05 01:41 -29.12913 -63.56164 36890 ft 493 kts 156°
2026-05-05 01:41 -29.18763 -63.52053 36893 ft 494 kts 156°
2026-05-05 01:42 -29.24593 -63.47965 36892 ft 494 kts 156°
2026-05-05 01:42 -29.30448 -63.43855 36918 ft 494 kts 156°
2026-05-05 01:43 -29.36306 -63.39737 36909 ft 493 kts 156°
2026-05-05 01:43 -29.42157 -63.35617 36909 ft 493 kts 156°
2026-05-05 01:44 -29.48007 -63.31497 36908 ft 493 kts 156°
2026-05-05 01:44 -29.53846 -63.27360 36928 ft 493 kts 156°
2026-05-05 01:45 -29.59675 -63.23213 36914 ft 493 kts 156°
2026-05-05 01:45 -29.65465 -63.19093 36912 ft 493 kts 156°
2026-05-05 01:46 -29.71292 -63.14945 36903 ft 493 kts 156°
2026-05-05 01:46 -29.77128 -63.10781 36928 ft 493 kts 156°
2026-05-05 01:47 -29.82953 -63.06627 36913 ft 492 kts 156°
2026-05-05 01:47 -29.88777 -63.02460 36905 ft 493 kts 156°
2026-05-05 01:48 -29.94592 -62.98290 36914 ft 492 kts 156°
2026-05-05 01:48 -30.00384 -62.94138 36926 ft 493 kts 156°
2026-05-05 01:49 -30.06212 -62.89963 36920 ft 493 kts 156°
2026-05-05 01:49 -30.12034 -62.85782 36913 ft 493 kts 156°
2026-05-05 01:50 -30.17849 -62.81586 36934 ft 493 kts 156°
2026-05-05 01:50 -30.23668 -62.77389 36921 ft 493 kts 156°
2026-05-05 01:51 -30.29488 -62.73192 36918 ft 493 kts 156°
2026-05-05 01:51 -30.35306 -62.68990 36914 ft 493 kts 156°
2026-05-05 01:52 -30.41124 -62.64771 36937 ft 493 kts 156°
2026-05-05 01:52 -30.46946 -62.60554 36927 ft 493 kts 156°
2026-05-05 01:53 -30.52777 -62.56331 36920 ft 494 kts 156°
2026-05-05 01:53 -30.58562 -62.52128 36921 ft 494 kts 156°
2026-05-05 01:54 -30.64382 -62.47887 36929 ft 494 kts 155°
2026-05-05 01:54 -30.70195 -62.43648 36925 ft 494 kts 155°
2026-05-05 01:55 -30.76015 -62.39408 36924 ft 494 kts 155°
2026-05-05 01:55 -30.81841 -62.35156 36923 ft 493 kts 156°
2026-05-05 01:56 -30.87668 -62.30937 36922 ft 493 kts 156°
2026-05-05 01:56 -30.93468 -62.26739 36924 ft 493 kts 156°
2026-05-05 01:57 -30.99298 -62.22500 36927 ft 494 kts 155°
2026-05-05 01:57 -31.05116 -62.18246 36952 ft 494 kts 155°
2026-05-05 01:58 -31.10946 -62.13981 36945 ft 493 kts 155°
2026-05-05 01:58 -31.16763 -62.09732 36938 ft 493 kts 155°
2026-05-05 01:59 -31.22575 -62.05468 36934 ft 494 kts 155°
2026-05-05 01:59 -31.28371 -62.01152 36954 ft 494 kts 155°
2026-05-05 02:00 -31.34171 -61.96828 36942 ft 494 kts 155°
2026-05-05 02:00 -31.39969 -61.92517 36940 ft 494 kts 155°
2026-05-05 02:01 -31.45769 -61.88195 36967 ft 494 kts 155°
2026-05-05 02:01 -31.51567 -61.83863 36951 ft 494 kts 155°
2026-05-05 02:02 -31.57359 -61.79537 36943 ft 494 kts 155°
2026-05-05 02:02 -31.63158 -61.75200 36936 ft 494 kts 155°
2026-05-05 02:03 -31.68952 -61.70860 36951 ft 494 kts 155°
2026-05-05 02:03 -31.74716 -61.66526 36941 ft 494 kts 155°
2026-05-05 02:04 -31.80513 -61.62166 36937 ft 494 kts 155°
2026-05-05 02:04 -31.86316 -61.57803 36969 ft 495 kts 155°
2026-05-05 02:05 -31.92115 -61.53426 36958 ft 495 kts 155°
2026-05-05 02:05 -31.97905 -61.49042 36946 ft 495 kts 155°
2026-05-05 02:06 -32.03698 -61.44655 36944 ft 495 kts 155°
2026-05-05 02:06 -32.09459 -61.40292 36953 ft 495 kts 155°
2026-05-05 02:07 -32.15253 -61.35894 36954 ft 495 kts 154°
2026-05-05 02:07 -32.21041 -61.31491 36946 ft 495 kts 154°
2026-05-05 02:08 -32.26834 -61.27080 36958 ft 495 kts 154°
2026-05-05 02:08 -32.32624 -61.22663 36950 ft 495 kts 154°
2026-05-05 02:09 -32.38405 -61.18242 36945 ft 495 kts 154°
2026-05-05 02:09 -32.44183 -61.13820 36943 ft 495 kts 154°
2026-05-05 02:10 -32.49956 -61.09391 36945 ft 494 kts 154°
2026-05-05 02:10 -32.54748 -61.05711 36940 ft 494 kts 154°
2026-05-05 02:11 -32.60518 -61.01290 36937 ft 494 kts 154°
2026-05-05 02:11 -32.66291 -60.96869 36939 ft 494 kts 154°
2026-05-05 02:12 -32.74942 -60.90198 36951 ft 494 kts 154°
2026-05-05 02:13 -32.80708 -60.85738 36942 ft 494 kts 154°
2026-05-05 02:13 -32.86472 -60.81276 36939 ft 494 kts 154°
2026-05-05 02:14 -32.92211 -60.76862 36938 ft 493 kts 155°
2026-05-05 02:14 -32.98098 -60.72725 36935 ft 490 kts 158°
2026-05-05 02:15 -33.04046 -60.68762 36942 ft 490 kts 158°
2026-05-05 02:15 -33.09980 -60.64741 36971 ft 491 kts 158°
2026-05-05 02:16 -33.15886 -60.60648 36964 ft 491 kts 157°
2026-05-05 02:16 -33.21783 -60.56529 36958 ft 491 kts 157°
2026-05-05 02:16 -33.24651 -60.54279 36963 ft 500 kts 146°
2026-05-05 02:17 -33.27082 -60.51254 36955 ft 510 kts 134°
2026-05-05 02:17 -33.31392 -60.44534 36615 ft 511 kts 133°
2026-05-05 02:17 -33.33525 -60.41143 36212 ft 510 kts 132°
2026-05-05 02:18 -33.35664 -60.37735 35360 ft 515 kts 132°
2026-05-05 02:18 -33.37824 -60.34295 34540 ft 519 kts 132°
2026-05-05 02:18 -33.39989 -60.30855 34054 ft 515 kts 131°
2026-05-05 02:18 -33.42137 -60.27444 33453 ft 512 kts 131°
2026-05-05 02:19 -33.44282 -60.24045 32749 ft 512 kts 131°
2026-05-05 02:19 -33.46436 -60.20645 31961 ft 513 kts 131°
2026-05-05 02:19 -33.48596 -60.17237 31217 ft 514 kts 131°
2026-05-05 02:19 -33.50756 -60.13817 30639 ft 515 kts 131°
2026-05-05 02:20 -33.52920 -60.10388 29998 ft 517 kts 131°
2026-05-05 02:20 -33.55086 -60.06945 29361 ft 518 kts 130°
2026-05-05 02:20 -33.57256 -60.03484 28734 ft 519 kts 130°
2026-05-05 02:20 -33.59386 -60.00079 28141 ft 515 kts 130°
2026-05-05 02:21 -33.61560 -59.96607 27510 ft 511 kts 130°
2026-05-05 02:21 -33.63662 -59.93252 26932 ft 507 kts 130°
2026-05-05 02:21 -33.65775 -59.89880 26354 ft 503 kts 130°
2026-05-05 02:21 -33.67868 -59.86538 25808 ft 499 kts 130°
2026-05-05 02:22 -33.69948 -59.83212 25267 ft 495 kts 130°
2026-05-05 02:22 -33.72003 -59.79916 24732 ft 491 kts 130°
2026-05-05 02:22 -33.74044 -59.76639 24207 ft 488 kts 130°
2026-05-05 02:22 -33.76072 -59.73385 23677 ft 484 kts 130°
2026-05-05 02:23 -33.78089 -59.70147 23080 ft 481 kts 130°
2026-05-05 02:23 -33.80086 -59.66934 22536 ft 477 kts 130°
2026-05-05 02:23 -33.82062 -59.63752 21983 ft 473 kts 130°
2026-05-05 02:23 -33.84020 -59.60597 21418 ft 468 kts 130°
2026-05-05 02:24 -33.85960 -59.57473 20842 ft 464 kts 130°
2026-05-05 02:24 -33.87882 -59.54378 20279 ft 459 kts 130°
2026-05-05 02:24 -33.89782 -59.51312 19707 ft 455 kts 130°
2026-05-05 02:24 -33.91665 -59.48266 19130 ft 451 kts 130°
2026-05-05 02:25 -33.93535 -59.45244 18558 ft 448 kts 130°
2026-05-05 02:25 -33.95387 -59.42246 17948 ft 445 kts 130°
2026-05-05 02:25 -33.97228 -59.39267 17381 ft 441 kts 130°
2026-05-05 02:25 -33.99045 -59.36323 16808 ft 436 kts 130°
2026-05-05 02:26 -34.00846 -59.33403 16253 ft 431 kts 130°
2026-05-05 02:26 -34.02621 -59.30519 15734 ft 425 kts 130°
2026-05-05 02:26 -34.04383 -59.27657 15151 ft 430 kts 130°
2026-05-05 02:26 -34.06157 -59.24779 14602 ft 432 kts 130°
2026-05-05 02:27 -34.07965 -59.21833 14023 ft 430 kts 131°
2026-05-05 02:27 -34.09735 -59.18943 13429 ft 426 kts 131°
2026-05-05 02:27 -34.11466 -59.16115 12882 ft 422 kts 130°
2026-05-05 02:27 -34.13203 -59.13281 12341 ft 418 kts 130°
2026-05-05 02:28 -34.14924 -59.10471 11799 ft 415 kts 130°
2026-05-05 02:28 -34.16633 -59.07679 11260 ft 411 kts 129°
2026-05-05 02:28 -34.18322 -59.04914 10731 ft 408 kts 129°
2026-05-05 02:28 -34.19994 -59.02170 10208 ft 404 kts 129°
2026-05-05 02:29 -34.21652 -58.99456 10076 ft 397 kts 129°
2026-05-05 02:29 -34.23256 -58.96830 9872 ft 382 kts 130°
2026-05-05 02:29 -34.24829 -58.94256 9213 ft 380 kts 129°
2026-05-05 02:29 -34.26391 -58.91698 8588 ft 377 kts 129°
2026-05-05 02:30 -34.27937 -58.89159 8036 ft 372 kts 128°
2026-05-05 02:30 -34.29457 -58.86652 7563 ft 367 kts 127°
2026-05-05 02:30 -34.30955 -58.84179 7087 ft 362 kts 127°
2026-05-05 02:30 -34.32437 -58.81741 6618 ft 358 kts 127°
2026-05-05 02:31 -34.33904 -58.79327 6139 ft 354 kts 126°
2026-05-05 02:31 -34.35357 -58.76934 5643 ft 351 kts 126°
2026-05-05 02:31 -34.36779 -58.74587 5158 ft 348 kts 126°
2026-05-05 02:31 -34.38209 -58.72227 4678 ft 346 kts 126°
2026-05-05 02:32 -34.39628 -58.69882 4174 ft 344 kts 126°
2026-05-05 02:32 -34.41039 -58.67551 3684 ft 341 kts 126°
2026-05-05 02:32 -34.42436 -58.65240 3184 ft 339 kts 126°
2026-05-05 02:32 -34.43807 -58.62970 3032 ft 325 kts 126°
2026-05-05 02:33 -34.45102 -58.60826 3065 ft 307 kts 126°
2026-05-05 02:33 -34.46308 -58.58821 3059 ft 281 kts 125°
2026-05-05 02:33 -34.47371 -58.56953 2899 ft 262 kts 122°
2026-05-05 02:33 -34.48350 -58.55139 2466 ft 257 kts 122°
2026-05-05 02:34 -34.49331 -58.53364 2115 ft 248 kts 122°
2026-05-05 02:34 -34.50281 -58.51678 1761 ft 234 kts 122°
2026-05-05 02:34 -34.51175 -58.50113 1460 ft 218 kts 122°
2026-05-05 02:34 -34.51996 -58.48690 1256 ft 192 kts 122°
2026-05-05 02:35 -34.52681 -58.47431 1119 ft 168 kts 119°
2026-05-05 02:35 -34.53297 -58.46288 875 ft 157 kts 121°
2026-05-05 02:35 -34.53897 -58.45216 576 ft 150 kts 123°
2026-05-05 02:35 -34.54475 -58.44175 380 ft 148 kts 123°
2026-05-05 02:36 -34.55050 -58.43145 179 ft 146 kts 124°
2026-05-05 02:36 -34.55612 -58.42138 29 ft 135 kts 123°
2026-05-05 02:36 -34.56019 -58.41410 25 ft 66 kts 124°
2026-05-05 02:36 -34.56171 -58.41137 27 ft 23 kts 124°
2026-05-05 02:37 -34.56172 -58.41023 29 ft 10 kts 59°
2026-05-05 02:37 -34.56122 -58.40984 30 ft 9 kts 312°
2026-05-05 02:37 -34.56078 -58.41059 28 ft 12 kts 306°
2026-05-05 02:37 -34.56018 -58.41149 29 ft 15 kts 308°
2026-05-05 02:38 -34.55956 -58.41250 30 ft 14 kts 306°
2026-05-05 02:38 -34.55900 -58.41299 27 ft 9 kts
2026-05-05 02:38 -34.55840 -58.41282 28 ft 7 kts
2026-05-05 02:38 -34.55806 -58.41257 28 ft 3 kts 38°
2026-05-05 02:39 -34.55799 -58.41251 27 ft 0 kts 38°